TimeEST,TemperatureF,Dew PointF,Humidity,Sea Level PressureIn,VisibilityMPH,Wind Direction,Wind SpeedMPH,Gust SpeedMPH,PrecipitationIn,Events,Conditions,WindDirDegrees,DateUTC
12:56 AM,53.1,41.0,64,29.96,10.0,SSW,16.1,23.0,N/A,,Partly Cloudy,200,2012-11-23 05:56:00
1:56 AM,54.0,42.1,64,29.94,10.0,SW,18.4,25.3,0.00,,Overcast,220,2012-11-23 06:56:00
2:21 AM,53.6,42.8,67,29.94,10.0,SSW,16.1,-,0.00,Rain,Light Rain,210,2012-11-23 07:21:00
2:47 AM,53.6,42.8,67,29.94,10.0,SSW,16.1,-,0.00,,Overcast,210,2012-11-23 07:47:00
2:56 AM,54.0,42.1,64,29.94,10.0,SW,15.0,-,0.00,,Overcast,220,2012-11-23 07:56:00
3:24 AM,53.6,42.8,67,29.92,10.0,SW,15.0,-,0.00,Rain,Light Rain,220,2012-11-23 08:24:00
3:43 AM,51.8,44.6,76,29.93,10.0,SSW,15.0,23.0,0.00,Rain,Light Rain,210,2012-11-23 08:43:00
3:56 AM,53.1,43.0,69,29.92,10.0,SW,15.0,-,0.00,,Overcast,230,2012-11-23 08:56:00
4:56 AM,51.1,48.0,89,29.91,7.0,SW,12.7,-,0.03,Rain,Light Rain,220,2012-11-23 09:56:00
5:22 AM,51.8,48.2,88,29.92,9.0,SW,16.1,-,0.00,,Overcast,230,2012-11-23 10:22:00
5:56 AM,51.1,50.0,96,29.92,7.0,WSW,16.1,-,0.00,Rain,Light Rain,250,2012-11-23 10:56:00
6:24 AM,51.8,48.2,88,29.92,9.0,West,17.3,24.2,0.00,,Overcast,270,2012-11-23 11:24:00
6:56 AM,48.0,43.0,83,29.94,10.0,West,11.5,-,0.00,,Overcast,280,2012-11-23 11:56:00
7:42 AM,44.6,41.0,87,29.96,10.0,West,18.4,24.2,N/A,,Mostly Cloudy,280,2012-11-23 12:42:00
7:51 AM,42.8,37.4,81,29.96,10.0,West,23.0,32.2,N/A,,Mostly Cloudy,280,2012-11-23 12:51:00
7:56 AM,43.0,35.1,74,29.98,10.0,West,20.7,32.2,N/A,,Mostly Cloudy,280,2012-11-23 12:56:00
8:56 AM,41.0,36.0,82,29.98,10.0,West,17.3,23.0,N/A,,Scattered Clouds,270,2012-11-23 13:56:00
9:56 AM,41.0,33.1,73,30.00,10.0,West,23.0,32.2,N/A,,Scattered Clouds,270,2012-11-23 14:56:00
10:37 AM,42.8,33.8,70,30.00,10.0,West,19.6,25.3,N/A,,Mostly Cloudy,280,2012-11-23 15:37:00
10:56 AM,42.1,30.9,65,30.01,10.0,West,20.7,28.8,N/A,,Mostly Cloudy,280,2012-11-23 15:56:00
11:30 AM,41.0,30.2,65,30.00,10.0,West,28.8,36.8,N/A,,Overcast,260,2012-11-23 16:30:00
11:56 AM,42.1,28.9,60,30.00,10.0,West,32.2,40.3,N/A,,Overcast,270,2012-11-23 16:56:00
12:56 PM,39.0,27.0,62,30.00,10.0,WNW,23.0,31.1,N/A,,Mostly Cloudy,290,2012-11-23 17:56:00
1:56 PM,39.0,26.1,60,30.01,10.0,West,24.2,39.1,N/A,,Mostly Cloudy,280,2012-11-23 18:56:00
2:56 PM,37.0,25.0,62,30.02,10.0,West,21.9,33.4,N/A,,Overcast,280,2012-11-23 19:56:00
3:56 PM,35.1,24.1,64,30.06,10.0,WNW,20.7,33.4,N/A,,Overcast,300,2012-11-23 20:56:00
4:16 PM,33.8,24.8,70,30.06,10.0,WNW,23.0,34.5,N/A,,Overcast,300,2012-11-23 21:16:00
4:56 PM,33.1,23.0,66,30.11,9.0,WNW,19.6,28.8,N/A,,Overcast,300,2012-11-23 21:56:00
5:56 PM,30.9,21.9,69,30.14,10.0,WNW,20.7,27.6,N/A,,Overcast,300,2012-11-23 22:56:00
6:56 PM,30.9,21.0,67,30.17,10.0,NW,16.1,29.9,N/A,,Overcast,310,2012-11-23 23:56:00
7:56 PM,30.0,19.9,66,30.18,10.0,WNW,15.0,21.9,N/A,,Overcast,290,2012-11-24 00:56:00
8:56 PM,30.0,19.9,66,30.19,10.0,WNW,11.5,-,N/A,,Overcast,290,2012-11-24 01:56:00
9:17 PM,30.2,19.4,64,30.16,10.0,WNW,13.8,-,N/A,,Overcast,290,2012-11-24 02:17:00
9:56 PM,30.0,19.0,64,30.19,10.0,West,15.0,-,N/A,,Overcast,280,2012-11-24 02:56:00
10:56 PM,30.0,19.0,64,30.19,10.0,West,12.7,20.7,N/A,,Overcast,280,2012-11-24 03:56:00
11:56 PM,30.0,19.9,66,30.17,10.0,West,11.5,-,N/A,,Overcast,270,2012-11-24 04:56:00